[[{"header":{"parameterUnit":"m.s-1","parameterCategory":1,"la1":30.2991,"la2":30.254,"lo1":-89.0895,"lo2":-89.0444,"dy":0.0017,"dx":0.0017,"nx":28,"ny":28,"refTime":"2024-05-28T09:00:00:Z","depth":0,"parameterNumber":2,"parameterNumberName":"U-component_of_WINDS"},"data":[0,0,0,0,0,0,0,0,0,0,0,0,0,0,0,0,0,0,0,0,0,0,0,0,0,0,0,0,0,0,0,0,0,0,0,0,0,0,0,0,0,0,0,0,0,0,0,0,0,0,0,0,0,0,0,0,0,0,1.7224,1.7223,0,1.7167,1.7167,1.7166,1.7114,1.7113,1.7112,1.7112,1.7053,1.7052,1.7051,0,0,0,0,0,0,0,0,0,0,0,0,0,1.7285,1.7284,1.7224,1.7223,1.7222,1.7167,1.7166,1.7166,1.7114,1.7113,1.7112,1.7111,1.7053,1.7052,1.7051,0,0,0,0,0,0,0,0,0,0,0,0,0,1.7246,1.7284,1.7224,1.719,1.7186,1.7167,1.7166,1.7165,1.7114,1.7113,1.7112,1.7111,1.7054,1.7052,1.7051,1.7061,0,0,1.7046,1.7046,0,0,0,0,0,0,0,0,1.7249,1.7244,1.7196,1.7192,1.7188,1.7146,1.7166,1.713,1.7114,1.7141,1.7112,1.7111,1.7085,1.7081,1.7072,1.7058,1.7056,1.7046,1.7045,1.7045,1.7044,0,0,0,0,0,0,0,1.7251,1.7246,1.7201,1.7195,1.719,1.7177,1.717,1.7159,1.7119,1.7139,1.7135,1.7129,1.7082,1.7074,1.707,1.7055,1.7046,1.7045,1.7044,1.7043,1.7044,1.7045,0,0,0,0,0,0,1.7259,1.7249,1.7203,1.72,1.7217,1.7176,1.7169,1.7161,1.7119,1.7112,1.713,1.7127,1.7077,1.7072,1.7068,1.7075,1.7045,1.7043,1.7042,1.7043,1.7044,1.7045,0,0,0,0,0,0,1.7261,1.7256,1.7205,1.7223,1.7216,1.7176,1.7167,1.716,1.7151,1.7112,1.7105,1.7128,1.7076,1.707,1.7063,1.7073,1.7043,1.7041,1.7042,1.7043,1.7044,1.7091,0,0,0,0,0,0,1.7263,1.7257,1.7261,1.7224,1.7215,1.7202,1.7168,1.716,1.7149,1.7144,1.7109,1.7102,1.7075,1.7065,1.7061,1.707,1.704,1.7041,1.7042,1.7044,1.7089,1.7094,1.7099,0,0,0,0,0,1.7265,1.7277,1.7261,1.7256,1.7219,1.7202,1.7197,1.7166,1.715,1.7153,1.7128,1.7103,1.7073,1.7065,1.706,1.7069,1.704,1.7042,1.7044,1.7086,1.7093,1.7099,0,0,0,0,0,0,1.7316,1.7271,1.7254,1.7253,1.7232,1.7194,1.7197,1.7174,1.7157,1.7153,1.7114,1.7107,1.7103,1.7085,1.7077,1.7075,1.7053,1.7054,1.7087,1.7093,1.7097,1.7101,1.7039,0,0,0,0,0,1.7327,1.7318,1.7279,1.7282,1.7272,1.7237,1.7228,1.7205,1.7182,1.7172,1.7147,1.7124,1.7109,1.71,1.7084,1.7086,1.7076,1.709,1.7095,1.7099,1.71,1.7097,1.7102,1.7051,1.7051,1.7051,0,0,1.735,1.7324,1.7321,1.7292,1.7272,1.7262,1.7229,1.7221,1.7212,1.7171,1.7162,1.7142,1.7114,1.7111,1.7108,1.7096,1.7112,1.7101,1.7105,1.7104,1.71,1.7104,1.7109,1.7053,1.7053,1.7052,0,0,1.7386,1.7366,1.7366,1.7347,1.7319,1.7294,1.7295,1.7259,1.7244,1.7235,1.7203,1.7192,1.7168,1.7149,1.7136,1.7163,1.7139,1.7159,1.7185,1.7183,1.7187,1.719,1.7198,1.7202,1.7161,1.7161,1.7161,0,1.7418,1.7402,1.7369,1.7361,1.7349,1.7311,1.7309,1.7293,1.726,1.7252,1.7239,1.7206,1.7185,1.7176,1.7182,1.7174,1.7171,1.7163,1.7189,1.7192,1.7195,1.7202,1.7205,1.7163,1.7163,1.7163,1.7163,0,1.7441,1.7431,1.7434,1.7403,1.7391,1.7387,1.7352,1.7344,1.7322,1.7299,1.7289,1.7262,1.7239,1.7235,1.7215,1.7222,1.7215,1.7197,1.7173,1.7203,1.7208,1.7211,1.7167,1.7166,1.7165,1.7165,0,0,1.7507,1.7458,1.7459,1.7444,1.7409,1.74,1.7393,1.7371,1.7364,1.7343,1.7335,1.7315,1.7296,1.7282,1.7258,1.7257,1.7278,1.7237,1.7236,1.7244,1.7282,1.7295,1.7299,1.7262,1.7262,1.7263,1.7284,0,1.7536,1.7522,1.7492,1.7487,1.7476,1.7439,1.7433,1.7411,1.7389,1.7375,1.7351,1.7337,1.7315,1.7305,1.7302,1.7276,1.7284,1.7274,1.7253,1.7253,1.7259,1.7303,1.7317,1.7338,1.7286,1.7286,1.7287,0,1.7568,1.7548,1.7543,1.7507,1.7501,1.7496,1.7472,1.7461,1.7434,1.7418,1.7401,1.7375,1.7365,1.7344,1.7328,1.7322,1.7312,1.7297,1.7297,1.7293,1.727,1.7298,1.7345,1.7347,1.729,1.729,1.729,0,1.7614,1.7586,1.7579,1.7567,1.7526,1.7523,1.7506,1.7478,1.7466,1.7445,1.7436,1.7415,1.7403,1.7386,1.7354,1.7342,1.7341,1.7318,1.7326,1.7327,1.7326,1.7327,1.7371,1.7323,1.7323,1.7323,1.7323,0,1.7648,1.7645,1.7599,1.7594,1.759,1.7554,1.7551,1.753,1.7505,1.7495,1.7462,1.7453,1.7412,1.7398,1.7373,1.7363,1.7358,1.7343,1.7337,1.7345,1.7347,1.7337,1.7334,1.7324,1.7323,1.7323,1.7323,0,1.7698,1.7667,1.7656,1.7618,1.7608,1.7606,1.7573,1.7566,1.7542,1.753,1.7524,1.7487,1.7468,1.7435,1.7407,1.739,1.7384,1.7373,1.7393,1.7389,1.7397,1.7396,1.7435,1.7438,1.739,1.7391,1.7391,0,1.7721,1.7718,1.768,1.767,1.7654,1.764,1.7627,1.7592,1.758,1.7548,1.7545,1.7524,1.7505,1.7477,1.7446,1.7424,1.7412,1.7427,1.7408,1.7416,1.7409,1.7409,1.7408,1.7431,1.7431,1.7432,1.7432,0,1.7765,1.7749,1.7733,1.771,1.7696,1.7677,1.7656,1.765,1.761,1.7598,1.7578,1.7564,1.7534,1.7513,1.7487,1.7467,1.7442,1.7439,1.7439,1.7447,1.7458,1.745,1.7403,1.7437,1.7437,1.7437,1.7436,1.7436,1.7801,1.7796,1.7767,1.7749,1.773,1.771,1.7702,1.7677,1.766,1.7634,1.7614,1.7595,1.7567,1.7528,1.7511,1.7495,1.7483,1.7484,1.7484,1.7485,1.7487,1.7462,1.749,1.749,1.749,1.749,1.7489,0,1.7841,1.7821,1.7805,1.7776,1.7761,1.774,1.7715,1.7704,1.7688,1.7664,1.7646,1.7623,1.7602,1.7569,1.7545,1.7539,1.7527,1.7533,1.7533,1.7528,1.75,1.7501,1.7544,1.7544,1.7544,1.7543,1.7543,1.7543,1.786,1.785,1.7831,1.781,1.7789,1.7771,1.7759,1.774,1.772,1.7696,1.7678,1.7657,1.7629,1.7603,1.7582,1.7573,1.7565,1.7575,1.7562,1.7536,1.7531,1.7526,1.7527,1.7574,1.7574,1.7591,1.7591,1.7592]},{"header":{"parameterUnit":"m.s-1","parameterCategory":1,"la1":30.2991,"la2":30.254,"lo1":-89.0895,"lo2":-89.0444,"dy":0.0017,"dx":0.0017,"nx":28,"ny":28,"refTime":"2024-05-28T09:00:00:Z","depth":0,"parameterNumber":3,"parameterNumberName":"V-component_of_WINDS"},"data":[0,0,0,0,0,0,0,0,0,0,0,0,0,0,0,0,0,0,0,0,0,0,0,0,0,0,0,0,0,0,0,0,0,0,0,0,0,0,0,0,0,0,0,0,0,0,0,0,0,0,0,0,0,0,0,0,0,0,2.775,2.7751,0,2.7829,2.783,2.7831,2.7797,2.7795,2.7793,2.7791,2.7867,2.7871,2.7875,0,0,0,0,0,0,0,0,0,0,0,0,0,2.7565,2.7568,2.775,2.7751,2.7752,2.7829,2.783,2.7831,2.7797,2.7795,2.7792,2.779,2.7866,2.787,2.7875,0,0,0,0,0,0,0,0,0,0,0,0,0,2.7644,2.757,2.775,2.7745,2.7745,2.7828,2.783,2.7831,2.7798,2.7795,2.7792,2.7789,2.7864,2.787,2.7876,2.7968,0,0,2.7893,2.7895,0,0,0,0,0,0,0,0,2.764,2.7651,2.7744,2.7745,2.7746,2.78,2.7792,2.7877,2.7798,2.7777,2.7791,2.7788,2.7847,2.7854,2.7875,2.7971,2.7974,2.7893,2.7897,2.7899,2.7901,0,0,0,0,0,0,0,2.7635,2.7648,2.7781,2.7746,2.7746,2.7736,2.7744,2.7808,2.7827,2.7779,2.7777,2.7787,2.7847,2.7869,2.7876,2.7976,2.7893,2.7898,2.7902,2.7904,2.8149,2.8152,0,0,0,0,0,0,2.763,2.7643,2.7779,2.7783,2.7685,2.7742,2.7751,2.7785,2.7826,2.783,2.7789,2.7785,2.7861,2.787,2.7879,2.7988,2.7899,2.7905,2.7908,2.8146,2.815,2.8153,0,0,0,0,0,0,2.7626,2.7642,2.7775,2.7713,2.7729,2.7748,2.7787,2.7788,2.7811,2.7834,2.7837,2.7809,2.7859,2.7871,2.7946,2.799,2.7907,2.7912,2.8142,2.8147,2.8151,2.8207,0,0,0,0,0,0,2.7621,2.7641,2.7678,2.7714,2.7733,2.7843,2.779,2.7792,2.7822,2.7817,2.7854,2.7857,2.7858,2.7937,2.7951,2.7996,2.7917,2.8138,2.8144,2.815,2.8201,2.8213,2.8223,0,0,0,0,0,2.7614,2.769,2.768,2.7696,2.7779,2.7845,2.7856,2.7857,2.7825,2.7861,2.7876,2.7856,2.7983,2.7945,2.7961,2.8008,2.8136,2.8143,2.8149,2.8197,2.8211,2.8223,0,0,0,0,0,0,2.7657,2.7694,2.7684,2.7774,2.7807,2.784,2.7885,2.7872,2.7914,2.7907,2.7905,2.7914,2.7991,2.8007,2.7964,2.8098,2.8054,2.8065,2.8085,2.8099,2.8109,2.8103,2.7922,0,0,0,0,0,2.7677,2.7729,2.7759,2.7835,2.7852,2.7866,2.7895,2.7893,2.7926,2.794,2.796,2.7992,2.8038,2.807,2.8114,2.8204,2.821,2.8244,2.8255,2.8263,2.8272,2.8318,2.8333,2.8176,2.8176,2.8176,0,0,2.7718,2.7745,2.7778,2.7844,2.787,2.7922,2.7878,2.7936,2.7974,2.7948,2.802,2.8036,2.8071,2.8153,2.819,2.8169,2.8317,2.8272,2.8279,2.8283,2.8327,2.8342,2.8355,2.8181,2.818,2.8179,0,0,2.782,2.7847,2.7913,2.7939,2.7979,2.7987,2.8003,2.8038,2.8047,2.812,2.8101,2.8146,2.8227,2.8253,2.8276,2.8387,2.8369,2.8401,2.8458,2.8503,2.8515,2.8526,2.8564,2.8577,2.841,2.841,2.841,0,2.7866,2.7947,2.7948,2.8007,2.8035,2.8016,2.8081,2.8106,2.8157,2.8176,2.8152,2.8253,2.8276,2.8362,2.8389,2.841,2.8426,2.8397,2.8514,2.8525,2.8535,2.857,2.8585,2.8414,2.8413,2.8413,2.8413,0,2.8,2.8056,2.8104,2.8155,2.8189,2.8251,2.8259,2.8293,2.8288,2.8298,2.8371,2.8397,2.8446,2.8466,2.8462,2.8552,2.8537,2.8514,2.8469,2.8553,2.8587,2.8601,2.8419,2.8417,2.8416,2.8416,0,0,2.8131,2.8182,2.82,2.8222,2.8263,2.8305,2.8365,2.8414,2.8442,2.8478,2.8527,2.8596,2.8574,2.86,2.8598,2.8638,2.8721,2.8609,2.861,2.8627,2.882,2.8837,2.8853,2.871,2.8713,2.8715,2.8817,0,2.8235,2.8342,2.8344,2.8441,2.8491,2.8473,2.8524,2.8554,2.8565,2.8608,2.8619,2.8668,2.8636,2.8651,2.869,2.8703,2.876,2.8696,2.8753,2.8755,2.8744,2.8871,2.8889,2.8984,2.883,2.8832,2.8834,0,2.8371,2.8412,2.8514,2.8547,2.8568,2.8615,2.8659,2.8701,2.8734,2.8738,2.8768,2.8759,2.8818,2.8773,2.8852,2.8809,2.8832,2.8842,2.8846,2.885,2.8799,2.8877,2.9015,2.9028,2.8855,2.8853,2.8852,0,2.8454,2.8535,2.8606,2.8626,2.8667,2.87,2.8718,2.8748,2.8777,2.8815,2.8833,2.8877,2.89,2.8934,2.8936,2.8903,2.9015,2.8971,2.9019,2.9019,2.9043,2.9041,2.9185,2.9061,2.906,2.906,2.906,0,2.8569,2.8632,2.8644,2.8688,2.8757,2.8758,2.8825,2.884,2.8867,2.8912,2.8898,2.894,2.8941,2.8983,2.8986,2.905,2.9061,2.9065,2.9065,2.9066,2.9065,2.908,2.9073,2.9064,2.9063,2.9062,2.9062,0,2.8673,2.8684,2.876,2.8793,2.8802,2.8852,2.8878,2.8919,2.8928,2.8985,2.8998,2.9012,2.9061,2.9067,2.9124,2.9125,2.9202,2.9195,2.9191,2.919,2.9237,2.9232,2.9394,2.9415,2.9279,2.928,2.9281,0,2.8745,2.8794,2.8831,2.8861,2.8881,2.8929,2.8958,2.8961,2.8991,2.9031,2.9067,2.9114,2.9152,2.9231,2.9245,2.9288,2.9281,2.9335,2.9287,2.9286,2.928,2.9276,2.928,2.9343,2.9345,2.9346,2.9347,0,2.8872,2.8874,2.8918,2.8964,2.9,2.9035,2.9068,2.9093,2.9099,2.9134,2.9184,2.9214,2.9272,2.9318,2.9361,2.9377,2.9362,2.9362,2.9375,2.9376,2.9371,2.9373,2.9215,2.9358,2.9357,2.9356,2.9356,2.9355,2.8961,2.9002,2.9035,2.9083,2.9109,2.914,2.918,2.9194,2.9237,2.9285,2.9283,2.9338,2.9367,2.9423,2.9442,2.9483,2.9465,2.9485,2.9489,2.9494,2.9498,2.9366,2.9491,2.9491,2.9491,2.949,2.949,0,2.9085,2.9105,2.915,2.9197,2.9235,2.922,2.9256,2.9288,2.9337,2.9366,2.9404,2.9461,2.9506,2.9523,2.9567,2.9596,2.9591,2.9608,2.9605,2.9608,2.9512,2.9496,2.9611,2.9611,2.9611,2.9611,2.9611,2.9611,2.9154,2.9222,2.9229,2.9309,2.9328,2.9383,2.9404,2.9432,2.9455,2.952,2.9557,2.9569,2.9593,2.9638,2.9678,2.9682,2.9697,2.9717,2.9718,2.9628,2.9615,2.9603,2.9588,2.9721,2.9721,2.981,2.981,2.9811]}]]